• In Germany
  • List of Countries
  • For 7 days
  • Water Temperature
  • Satellite Maps
  • Weather Map
  • Weather Widgets
  • user-avatar
    Login

    Hourly Weather Okoyo

    Today, 21 November, Tuesday

    Time Temperature Precipitation Wind Pressure Humidity
    00:00 +25°C° 0.3 mm 1 mps 723 mmHg 88%
    01:00 +25°C° 0.3 mm 1 mps 723 mmHg 89%
    02:00 +24°C° 0.1 mm 1 mps 723 mmHg 89%
    03:00 +24°C° 0.1 mm 1 mps 722 mmHg 90%
    04:00 +24°C° 0.1 mm 1 mps 722 mmHg 91%
    05:00 +25°C° 0 mm 1 mps 722 mmHg 89%
    06:00 +25°C° 0 mm 1 mps 723 mmHg 88%
    07:00 +26°C° 0 mm 1 mps 723 mmHg 86%
    08:00 +28°C° 0.3 mm 1 mps 723 mmHg 77%
    09:00 +30°C° 0.3 mm 1 mps 724 mmHg 67%
    10:00 +33°C° 0.3 mm 1 mps 724 mmHg 58%
    11:00 +33°C° 0.1 mm 1 mps 723 mmHg 56%
    12:00 +33°C° 0.1 mm 1 mps 722 mmHg 54%
    13:00 +34°C° 0.1 mm 2 mps 722 mmHg 53%
    14:00 +34°C° 0 mm 2 mps 721 mmHg 53%
    15:00 +33°C° 0 mm 1 mps 721 mmHg 54%
    16:00 +33°C° 0 mm 1 mps 720 mmHg 54%
    17:00 +31°C° 0 mm 1 mps 721 mmHg 60%
    18:00 +30°C° 0 mm 1 mps 721 mmHg 65%
    19:00 +28°C° 0 mm 1 mps 721 mmHg 70%
    20:00 +27°C° 0.2 mm 1 mps 722 mmHg 73%
    21:00 +27°C° 0.2 mm 1 mps 722 mmHg 76%
    22:00 +26°C° 0.2 mm 1 mps 723 mmHg 79%
    23:00 +26°C° 0.1 mm 1 mps 723 mmHg 82%

    Tomorrow, 22 November, Wednesday

    Time Temperature Precipitation Wind Pressure Humidity
    00:00 +26°C° 0.1 mm 1 mps 722 mmHg 84%
    01:00 +25°C° 0.1 mm 1 mps 722 mmHg 86%
    02:00 +25°C° 0.1 mm 1 mps 722 mmHg 87%
    03:00 +25°C° 0.1 mm 1 mps 722 mmHg 88%
    04:00 +25°C° 0.1 mm 1 mps 721 mmHg 89%
    05:00 +25°C° 0 mm 1 mps 722 mmHg 88%
    06:00 +25°C° 0 mm 2 mps 722 mmHg 86%
    07:00 +26°C° 0 mm 2 mps 723 mmHg 85%
    08:00 +28°C° 0 mm 2 mps 723 mmHg 77%
    09:00 +30°C° 0 mm 2 mps 723 mmHg 69%
    10:00 +32°C° 0 mm 2 mps 724 mmHg 61%
    11:00 +32°C° 1.6 mm 2 mps 723 mmHg 59%
    12:00 +33°C° 1.6 mm 1 mps 722 mmHg 57%
    13:00 +34°C° 1.6 mm 1 mps 721 mmHg 55%
    14:00 +32°C° 2.3 mm 1 mps 721 mmHg 63%
    15:00 +31°C° 2.3 mm 2 mps 720 mmHg 71%
    16:00 +29°C° 2.3 mm 2 mps 720 mmHg 78%
    17:00 +28°C° 1.3 mm 2 mps 721 mmHg 81%
    18:00 +27°C° 1.3 mm 2 mps 721 mmHg 85%
    19:00 +26°C° 1.3 mm 2 mps 722 mmHg 88%
    20:00 +25°C° 1.5 mm 2 mps 722 mmHg 89%
    21:00 +25°C° 1.5 mm 2 mps 723 mmHg 90%
    22:00 +25°C° 1.5 mm 2 mps 723 mmHg 91%
    23:00 +25°C° 0.4 mm 2 mps 723 mmHg 91%

    Day after tomorrow, 23 November, Thursday

    Time Temperature Precipitation Wind Pressure Humidity
    00:00 +25°C° 0.4 mm 2 mps 723 mmHg 92%
    01:00 +24°C° 0.4 mm 2 mps 722 mmHg 92%
    02:00 +24°C° 0 mm 2 mps 722 mmHg 92%
    03:00 +24°C° 0 mm 2 mps 722 mmHg 92%
    04:00 +24°C° 0 mm 1 mps 721 mmHg 93%
    05:00 +24°C° 0.4 mm 2 mps 722 mmHg 92%
    06:00 +25°C° 0.4 mm 2 mps 723 mmHg 90%
    07:00 +25°C° 0.4 mm 2 mps 723 mmHg 89%
    08:00 +27°C° 0 mm 2 mps 724 mmHg 82%
    09:00 +28°C° 0 mm 2 mps 724 mmHg 74%
    10:00 +30°C° 0 mm 2 mps 724 mmHg 67%
    11:00 +31°C° 0.6 mm 2 mps 723 mmHg 62%
    12:00 +32°C° 0.6 mm 1 mps 723 mmHg 58%
    13:00 +34°C° 0.6 mm 1 mps 722 mmHg 53%
    14:00 +33°C° 0.5 mm 1 mps 721 mmHg 58%
    15:00 +32°C° 0.5 mm 2 mps 721 mmHg 62%
    16:00 +30°C° 0.5 mm 2 mps 720 mmHg 67%
    17:00 +29°C° 0.6 mm 2 mps 721 mmHg 73%
    18:00 +27°C° 0.6 mm 2 mps 721 mmHg 80%
    19:00 +26°C° 0.6 mm 2 mps 722 mmHg 86%
    20:00 +26°C° 0.1 mm 2 mps 722 mmHg 87%
    21:00 +25°C° 0.1 mm 1 mps 723 mmHg 88%
    22:00 +25°C° 0.1 mm 1 mps 723 mmHg 89%
    23:00 +25°C° 0 mm 1 mps 723 mmHg 89%

    24 November, Friday

    Time Temperature Precipitation Wind Pressure Humidity
    00:00 +24°C° 0 mm 1 mps 723 mmHg 90%
    01:00 +24°C° 0 mm 1 mps 722 mmHg 91%
    02:00 +24°C° 0.8 mm 1 mps 722 mmHg 92%
    03:00 +24°C° 0.8 mm 1 mps 722 mmHg 93%
    04:00 +23°C° 0.8 mm 1 mps 722 mmHg 95%
    05:00 +24°C° 0.3 mm 1 mps 723 mmHg 93%
    06:00 +25°C° 0.3 mm 1 mps 723 mmHg 91%
    07:00 +25°C° 0.3 mm 1 mps 724 mmHg 89%
    08:00 +27°C° 0 mm 1 mps 724 mmHg 79%
    09:00 +29°C° 0 mm 2 mps 724 mmHg 69%
    10:00 +31°C° 0 mm 2 mps 724 mmHg 60%
    11:00 +32°C° 0.5 mm 2 mps 723 mmHg 57%
    12:00 +34°C° 0.5 mm 2 mps 722 mmHg 55%
    13:00 +34°C° 0.5 mm 2 mps 721 mmHg 52%
    14:00 +34°C° 0.4 mm 2 mps 721 mmHg 54%
    15:00 +32°C° 0.4 mm 2 mps 721 mmHg 57%
    16:00 +32°C° 0.4 mm 2 mps 720 mmHg 59%
    17:00 +30°C° 0.4 mm 2 mps 721 mmHg 66%
    18:00 +28°C° 0.4 mm 2 mps 722 mmHg 73%
    19:00 +27°C° 0.4 mm 2 mps 722 mmHg 80%
    20:00 +26°C° 0 mm 2 mps 723 mmHg 81%
    21:00 +26°C° 0 mm 2 mps 723 mmHg 83%
    22:00 +25°C° 0 mm 2 mps 723 mmHg 85%
    23:00 +25°C° 0 mm 2 mps 723 mmHg 86%

    25 November, Saturday

    Time Temperature Precipitation Wind Pressure Humidity
    00:00 +25°C° 0 mm 2 mps 723 mmHg 87%
    01:00 +25°C° 0 mm 2 mps 723 mmHg 88%
    02:00 +24°C° 0 mm 2 mps 722 mmHg 89%
    03:00 +24°C° 0 mm 2 mps 722 mmHg 90%
    04:00 +24°C° 0 mm 2 mps 722 mmHg 91%
    05:00 +24°C° 0.2 mm 2 mps 723 mmHg 90%
    06:00 +24°C° 0.2 mm 3 mps 723 mmHg 89%
    07:00 +25°C° 0.2 mm 3 mps 724 mmHg 88%
    08:00 +26°C° 0.6 mm 3 mps 724 mmHg 82%
    09:00 +28°C° 0.6 mm 3 mps 724 mmHg 77%
    10:00 +29°C° 0.6 mm 3 mps 724 mmHg 72%
    11:00 +30°C° 1.2 mm 2 mps 724 mmHg 68%
    12:00 +31°C° 1.2 mm 2 mps 723 mmHg 65%
    13:00 +31°C° 1.2 mm 1 mps 722 mmHg 61%
    14:00 +31°C° 1.6 mm 1 mps 722 mmHg 65%
    15:00 +30°C° 1.6 mm 1 mps 722 mmHg 68%
    16:00 +29°C° 1.6 mm 1 mps 722 mmHg 71%
    17:00 +28°C° 1.8 mm 1 mps 722 mmHg 77%
    18:00 +27°C° 1.8 mm 1 mps 723 mmHg 82%
    19:00 +26°C° 1.8 mm 1 mps 724 mmHg 88%
    20:00 +25°C° 1.2 mm 1 mps 724 mmHg 89%
    21:00 +25°C° 1.2 mm 1 mps 724 mmHg 90%
    22:00 +25°C° 1.2 mm 1 mps 725 mmHg 91%
    23:00 +24°C° 0.8 mm 1 mps 724 mmHg 92%

    26 November, Sunday

    Time Temperature Precipitation Wind Pressure Humidity
    00:00 +24°C° 0.8 mm 1 mps 724 mmHg 93%
    01:00 +24°C° 0.8 mm 1 mps 724 mmHg 93%
    02:00 +24°C° 0.4 mm 1 mps 724 mmHg 93%
    03:00 +24°C° 0.4 mm 1 mps 724 mmHg 93%
    04:00 +23°C° 0.4 mm 2 mps 724 mmHg 93%
    05:00 +24°C° 0.3 mm 2 mps 724 mmHg 93%
    06:00 +24°C° 0.3 mm 1 mps 725 mmHg 92%
    07:00 +24°C° 0.3 mm 1 mps 725 mmHg 91%
    08:00 +25°C° 0.1 mm 2 mps 725 mmHg 85%
    09:00 +26°C° 0.1 mm 2 mps 726 mmHg 79%
    10:00 +27°C° 0.1 mm 2 mps 726 mmHg 73%
    11:00 +28°C° 0.1 mm 2 mps 725 mmHg 69%
    12:00 +29°C° 0.1 mm 2 mps 725 mmHg 66%
    13:00 +30°C° 0.1 mm 2 mps 724 mmHg 62%
    14:00 +29°C° 0 mm 1 mps 724 mmHg 64%
    15:00 +29°C° 0 mm 1 mps 723 mmHg 65%
    16:00 +29°C° 0 mm 1 mps 723 mmHg 67%
    17:00 +28°C° 0 mm 1 mps 723 mmHg 70%
    18:00 +27°C° 0 mm 1 mps 723 mmHg 73%
    19:00 +26°C° 0 mm 1 mps 724 mmHg 76%
    20:00 +25°C° 0 mm 1 mps 724 mmHg 77%
    21:00 +25°C° 0 mm 1 mps 724 mmHg 78%
    22:00 +25°C° 0 mm 1 mps 725 mmHg 79%
    23:00 +24°C° 0 mm 1 mps 725 mmHg 79%
    Show more